| time (UTC) | temp F | wind direction | speed knots | gust knots | rain 1hr in | rain 24hr in | rain mn in | humidity % | barometer mb |
| 20260505083504 | 35 | 58 | 4.3 | 6.1 | 0.01 | 0.42 | 0.05 | 94 | 1003.9 |
| 20260505083004 | 35 | 51 | 4.3 | 7.8 | 0.02 | 0.42 | 0.05 | 94 | 1004.0 |
| 20260505082004 | 35 | 47 | 5.2 | 8.7 | 0.04 | 0.42 | 0.05 | 94 | 1004.1 |
| 20260505081504 | 36 | 59 | 5.2 | 7.8 | 0.05 | 0.42 | 0.05 | 94 | 1004.1 |
| 20260505081004 | 36 | 54 | 2.6 | 6.1 | 0.04 | 0.41 | 0.04 | 94 | 1004.0 |
| 20260505080504 | 36 | 47 | 5.2 | 10.4 | 0.04 | 0.41 | 0.04 | 94 | 1004.0 |
| 20260505075504 | 37 | 76 | 6.1 | 8.7 | 0.04 | 0.41 | 0.04 | 94 | 1004.0 |
| 20260505075005 | 37 | 77 | 6.1 | 10.4 | 0.04 | 0.41 | 0.04 | 94 | 1004.0 |
| 20260505074504 | 38 | 93 | 4.3 | 8.7 | 0.04 | 0.41 | 0.04 | 94 | 1004.1 |
| 20260505074004 | 38 | 92 | 4.3 | 8.7 | 0.04 | 0.41 | 0.04 | 95 | 1004.2 |
| 20260505073504 | 38 | 113 | 2.6 | 6.1 | 0.04 | 0.41 | 0.04 | 95 | 1004.3 |
| 20260505073003 | 38 | 46 | 0.9 | 1.7 | 0.03 | 0.40 | 0.03 | 95 | 1004.3 |
| 20260505071503 | 38 | 46 | 0.9 | 1.7 | 0.00 | 0.37 | 0.00 | 95 | 1004.3 |
| 20260505071004 | 38 | 46 | 0.0 | 0.0 | 0.00 | 0.37 | 0.00 | 95 | 1004.3 |
| 20260505070504 | 38 | 46 | 0.0 | 0.0 | 0.00 | 0.37 | 0.00 | 95 | 1004.3 |
| 20260505070003 | 38 | 46 | 0.0 | 0.0 | 0.00 | 0.37 | 0.00 | 95 | 1004.3 |
| 20260505065004 | 38 | 46 | 0.0 | 0.0 | 0.00 | 0.37 | 0.00 | 95 | 1004.3 |
| 20260505064503 | 38 | 46 | 0.0 | 0.0 | 0.00 | 0.37 | 0.00 | 95 | 1004.4 |
| 20260505064003 | 38 | 46 | 0.0 | 0.0 | 0.00 | 0.37 | 0.00 | 95 | 1004.5 |
| 20260505063504 | 38 | 46 | 0.0 | 0.0 | 0.00 | 0.37 | 0.00 | 95 | 1004.5 |
| 20260505063003 | 37 | 46 | 0.0 | 0.0 | 0.00 | 0.37 | 0.00 | 95 | 1004.5 |
| 20260505062503 | 37 | 46 | 0.0 | 0.0 | 0.00 | 0.37 | 0.00 | 95 | 1004.6 |
| 20260505062004 | 37 | 46 | 0.0 | 0.0 | 0.00 | 0.37 | 0.00 | 95 | 1004.6 |
| 20260505061003 | 37 | 46 | 0.0 | 0.0 | 0.00 | 0.37 | 0.00 | 94 | 1004.6 |
| 20260505060504 | 37 | 46 | 0.0 | 0.0 | 0.00 | 0.37 | 0.00 | 94 | 1004.6 |
| 20260505060003 | 37 | 46 | 0.0 | 0.0 | 0.00 | 0.37 | 0.00 | 94 | 1004.6 |
| 20260505055503 | 37 | 46 | 0.0 | 0.0 | 0.00 | 0.37 | 0.37 | 94 | 1004.7 |
| 20260505054503 | 37 | 46 | 0.0 | 0.0 | 0.00 | 0.37 | 0.37 | 94 | 1004.7 |
| 20260505054004 | 37 | 46 | 0.0 | 0.0 | 0.00 | 0.37 | 0.37 | 94 | 1004.6 |
| 20260505053004 | 37 | 46 | 0.0 | 0.0 | 0.00 | 0.37 | 0.37 | 94 | 1004.6 |
| 20260505052504 | 37 | 46 | 0.0 | 0.0 | 0.00 | 0.37 | 0.37 | 94 | 1004.7 |
| 20260505052004 | 37 | 46 | 0.0 | 0.0 | 0.00 | 0.37 | 0.37 | 94 | 1004.6 |
| 20260505051504 | 37 | 46 | 0.0 | 0.0 | 0.00 | 0.37 | 0.37 | 94 | 1004.6 |
| 20260505051004 | 37 | 46 | 0.0 | 0.0 | 0.00 | 0.37 | 0.37 | 93 | 1004.6 |
| 20260505041504 | 38 | 46 | 0.0 | 0.0 | 0.00 | 0.37 | 0.37 | 93 | 1004.6 |
| 20260505041004 | 38 | 46 | 0.0 | 1.7 | 0.00 | 0.37 | 0.37 | 93 | 1004.5 |
| 20260505040504 | 38 | 46 | 0.9 | 2.6 | 0.00 | 0.37 | 0.37 | 93 | 1004.5 |
| 20260505040004 | 38 | 61 | 0.0 | 0.0 | 0.00 | 0.37 | 0.37 | 93 | 1004.5 |
| 20260505035504 | 38 | 61 | 0.0 | 0.0 | 0.00 | 0.37 | 0.37 | 93 | 1004.5 |
| 20260505035004 | 39 | 61 | 0.9 | 2.6 | 0.00 | 0.37 | 0.37 | 93 | 1004.4 |
| 20260505034504 | 38 | 61 | 1.7 | 2.6 | 0.00 | 0.37 | 0.37 | 93 | 1004.4 |
| 20260505034004 | 38 | 61 | 1.7 | 2.6 | 0.00 | 0.37 | 0.37 | 93 | 1004.5 |
| 20260505033004 | 38 | 46 | 0.9 | 2.6 | 0.00 | 0.37 | 0.37 | 92 | 1004.8 |
| 20260505032504 | 38 | 46 | 1.7 | 2.6 | 0.00 | 0.37 | 0.37 | 92 | 1004.6 |
| 20260505032004 | 38 | 46 | 2.6 | 4.3 | 0.00 | 0.37 | 0.37 | 92 | 1004.6 |
| 20260505031004 | 38 | 232 | 0.0 | 0.0 | 0.00 | 0.37 | 0.37 | 92 | 1004.5 |
| 20260505030504 | 39 | 232 | 0.0 | 0.0 | 0.00 | 0.37 | 0.37 | 92 | 1004.4 |
| 20260505030004 | 39 | 232 | 0.0 | 0.0 | 0.00 | 0.37 | 0.37 | 92 | 1004.3 |
| 20260505025503 | 39 | 232 | 0.0 | 0.0 | 0.00 | 0.37 | 0.37 | 92 | 1004.3 |
| 20260505024503 | 39 | 232 | 0.0 | 2.6 | 0.01 | 0.37 | 0.37 | 92 | 1003.9 |
| 20260505023504 | 39 | 281 | 0.9 | 2.6 | 0.03 | 0.37 | 0.37 | 92 | 1003.9 |
| 20260505022504 | 39 | 281 | 1.7 | 2.6 | 0.03 | 0.37 | 0.37 | 92 | 1003.8 |
| 20260505021504 | 39 | 280 | 0.9 | 2.6 | 0.04 | 0.37 | 0.37 | 92 | 1003.8 |
| 20260505021004 | 39 | 280 | 0.9 | 2.6 | 0.04 | 0.37 | 0.37 | 93 | 1003.8 |
| 20260505020504 | 39 | 280 | 1.7 | 2.6 | 0.04 | 0.37 | 0.37 | 92 | 1003.9 |
| 20260505015504 | 39 | 209 | 7.0 | 10.4 | 0.06 | 0.37 | 0.37 | 92 | 1003.5 |
| 20260505015004 | 39 | 172 | 5.2 | 7.8 | 0.06 | 0.36 | 0.36 | 92 | 1003.1 |
| 20260505014004 | 39 | 97 | 1.7 | 2.6 | 0.08 | 0.35 | 0.35 | 92 | 1003.8 |
| 20260505013504 | 39 | 97 | 0.9 | 1.7 | 0.08 | 0.34 | 0.34 | 92 | 1003.9 |
| 20260505013003 | 39 | 97 | 0.0 | 0.0 | 0.09 | 0.34 | 0.34 | 92 | 1003.9 |
| 20260505012504 | 39 | 97 | 0.0 | 0.0 | 0.11 | 0.34 | 0.34 | 91 | 1003.9 |
| 20260505012004 | 39 | 97 | 0.0 | 0.0 | 0.12 | 0.34 | 0.34 | 91 | 1003.9 |
| 20260505011504 | 39 | 97 | 0.0 | 1.7 | 0.12 | 0.33 | 0.33 | 91 | 1004.0 |
| 20260505010504 | 39 | 97 | 0.9 | 2.6 | 0.17 | 0.33 | 0.33 | 91 | 1004.2 |
| 20260505010004 | 39 | 97 | 0.9 | 1.7 | 0.17 | 0.32 | 0.32 | 91 | 1004.4 |
| 20260505005504 | 39 | 97 | 1.7 | 2.6 | 0.16 | 0.31 | 0.31 | 90 | 1004.2 |
| 20260505005004 | 39 | 57 | 0.9 | 1.7 | 0.17 | 0.30 | 0.30 | 90 | 1004.2 |
| 20260505004504 | 39 | 57 | 0.9 | 1.7 | 0.20 | 0.29 | 0.29 | 90 | 1004.1 |
| 20260505004004 | 39 | 57 | 1.7 | 2.6 | 0.24 | 0.27 | 0.27 | 90 | 1004.2 |
| 20260505003504 | 39 | 83 | 1.7 | 2.6 | 0.25 | 0.26 | 0.26 | 89 | 1004.4 |
| 20260505001504 | 40 | 58 | 2.6 | 4.3 | 0.20 | 0.21 | 0.21 | 87 | 1003.9 |
| 20260505001004 | 41 | 57 | 2.6 | 4.3 | 0.17 | 0.18 | 0.18 | 86 | 1003.9 |
| 20260505000504 | 41 | 19 | 1.7 | 2.6 | 0.15 | 0.16 | 0.16 | 84 | 1003.6 |
| 20260505000003 | 42 | 355 | 1.7 | 2.6 | 0.14 | 0.15 | 0.15 | 83 | 1003.6 |
| 20260504235504 | 42 | 28 | 3.5 | 5.2 | 0.14 | 0.15 | 0.15 | 81 | 1003.4 |
| 20260504235004 | 43 | 39 | 3.5 | 4.3 | 0.12 | 0.13 | 0.13 | 77 | 1003.5 |
| 20260504234504 | 44 | 271 | 2.6 | 12.2 | 0.08 | 0.09 | 0.09 | 74 | 1003.4 |
| 20260504234004 | 46 | 354 | 7.8 | 13.0 | 0.02 | 0.03 | 0.03 | 72 | 1003.3 |
| 20260504233003 | 47 | 24 | 11.3 | 14.8 | 0.00 | 0.01 | 0.01 | 63 | 1002.9 |
| 20260504232504 | 47 | 74 | 5.2 | 13.0 | 0.00 | 0.01 | 0.01 | 61 | 1002.7 |
| 20260504232004 | 48 | 88 | 6.1 | 11.3 | 0.00 | 0.01 | 0.01 | 61 | 1002.7 |
| 20260504231004 | 47 | 117 | 3.5 | 6.1 | 0.00 | 0.01 | 0.01 | 62 | 1002.4 |
| 20260504230003 | 47 | 141 | 7.0 | 10.4 | 0.00 | 0.01 | 0.01 | 63 | 1002.3 |
| 20260504225504 | 48 | 161 | 5.2 | 8.7 | 0.00 | 0.01 | 0.01 | 62 | 1002.3 |
| 20260504225004 | 48 | 144 | 5.2 | 10.4 | 0.00 | 0.01 | 0.01 | 60 | 1001.8 |
| 20260504224503 | 49 | 132 | 7.8 | 13.0 | 0.00 | 0.01 | 0.01 | 58 | 1001.6 |
| 20260504224004 | 50 | 136 | 9.6 | 13.0 | 0.00 | 0.01 | 0.01 | 54 | 1001.5 |
| 20260504223504 | 50 | 112 | 4.3 | 8.7 | 0.00 | 0.01 | 0.01 | 53 | 1001.5 |
| 20260504223004 | 50 | 129 | 6.1 | 10.4 | 0.00 | 0.01 | 0.01 | 53 | 1001.4 |
| 20260504222504 | 50 | 116 | 5.2 | 10.4 | 0.00 | 0.01 | 0.01 | 53 | 1001.3 |
| 20260504222004 | 50 | 103 | 5.2 | 12.2 | 0.00 | 0.01 | 0.01 | 55 | 1001.1 |
| 20260504221504 | 50 | 87 | 7.0 | 13.9 | 0.00 | 0.01 | 0.01 | 53 | 1001.0 |
| 20260504221004 | 51 | 40 | 8.7 | 14.8 | 0.00 | 0.01 | 0.01 | 53 | 1000.9 |
| 20260504220504 | 51 | 43 | 7.8 | 13.9 | 0.00 | 0.01 | 0.01 | 53 | 1000.9 |
| 20260504220004 | 52 | 44 | 8.7 | 14.8 | 0.00 | 0.01 | 0.01 | 51 | 1000.8 |
| 20260504215504 | 53 | 32 | 11.3 | 15.6 | 0.00 | 0.01 | 0.01 | 48 | 1000.9 |
| 20260504215004 | 54 | 25 | 8.7 | 18.2 | 0.01 | 0.01 | 0.01 | 47 | 1001.0 |
| 20260504214503 | 55 | 25 | 8.7 | 15.6 | 0.01 | 0.01 | 0.01 | 46 | 1001.0 |
| 20260504214004 | 55 | 0 | 10.4 | 17.4 | 0.01 | 0.01 | 0.01 | 43 | 1001.0 |
| 20260504213003 | 55 | 76 | 4.3 | 8.7 | 0.01 | 0.01 | 0.01 | 46 | 1001.1 |
| 20260504212503 | 55 | 61 | 3.5 | 10.4 | 0.01 | 0.01 | 0.01 | 48 | 1001.0 |
| 20260504212004 | 55 | 114 | 7.8 | 12.2 | 0.01 | 0.01 | 0.01 | 50 | 1000.9 |
| 20260504211504 | 54 | 89 | 4.3 | 10.4 | 0.01 | 0.01 | 0.01 | 52 | 1001.0 |
| 20260504211004 | 53 | 130 | 1.7 | 6.1 | 0.01 | 0.01 | 0.01 | 52 | 1001.4 |
| 20260504210504 | 52 | 140 | 5.2 | 8.7 | 0.01 | 0.01 | 0.01 | 55 | 1001.4 |
| 20260504210004 | 52 | 120 | 4.3 | 6.1 | 0.01 | 0.01 | 0.01 | 58 | 1001.4 |
| 20260504205004 | 51 | 175 | 0.9 | 2.6 | 0.00 | 0.00 | 0.00 | 55 | 1001.2 |
| 20260504204503 | 51 | 186 | 1.7 | 7.8 | 0.00 | 0.00 | 0.00 | 52 | 1001.5 |
| 20260504204004 | 51 | 162 | 2.6 | 4.3 | 0.00 | 0.00 | 0.00 | 56 | 1001.7 |
| 20260504203504 | 51 | 199 | 4.3 | 5.2 | 0.00 | 0.00 | 0.00 | 54 | 1001.7 |
| 20260504203003 | 51 | 186 | 0.0 | 2.6 | 0.00 | 0.00 | 0.00 | 54 | 1001.7 |
| 20260504202504 | 51 | 186 | 1.7 | 2.6 | 0.00 | 0.00 | 0.00 | 54 | 1001.7 |
| 20260504202004 | 51 | 172 | 3.5 | 4.3 | 0.00 | 0.00 | 0.00 | 54 | 1001.7 |
| 20260504201504 | 51 | 177 | 1.7 | 5.2 | 0.00 | 0.00 | 0.00 | 59 | 1001.5 |
| 20260504201004 | 51 | 211 | 6.1 | 8.7 | 0.00 | 0.00 | 0.00 | 62 | 1001.6 |
| 20260504200504 | 50 | 132 | 2.6 | 4.3 | 0.00 | 0.00 | 0.00 | 63 | 1001.7 |
| 20260504200004 | 49 | 65 | 1.7 | 4.3 | 0.00 | 0.00 | 0.00 | 60 | 1001.7 |
| 20260504195503 | 48 | 207 | 0.9 | 2.6 | 0.00 | 0.00 | 0.00 | 60 | 1001.7 |
| 20260504195003 | 48 | 205 | 4.3 | 6.1 | 0.00 | 0.00 | 0.00 | 61 | 1001.9 |
| 20260504194003 | 49 | 207 | 5.2 | 7.8 | 0.00 | 0.00 | 0.00 | 59 | 1002.2 |
| 20260504193504 | 49 | 200 | 3.5 | 7.8 | 0.00 | 0.00 | 0.00 | 61 | 1002.1 |
| 20260504193004 | 49 | 215 | 2.6 | 2.6 | 0.00 | 0.00 | 0.00 | 60 | 1002.0 |
| 20260504192504 | 49 | 121 | 1.7 | 2.6 | 0.00 | 0.00 | 0.00 | 62 | 1002.0 |
| 20260504192004 | 50 | 121 | 1.7 | 2.6 | 0.00 | 0.00 | 0.00 | 56 | 1002.2 |
| 20260504191504 | 50 | 97 | 1.7 | 2.6 | 0.00 | 0.00 | 0.00 | 52 | 1002.1 |
| 20260504191003 | 51 | 75 | 2.6 | 4.3 | 0.00 | 0.00 | 0.00 | 52 | 1002.1 |
| 20260504190504 | 51 | 58 | 1.7 | 6.1 | 0.00 | 0.00 | 0.00 | 52 | 1002.1 |
| 20260504190003 | 51 | 103 | 4.3 | 7.8 | 0.00 | 0.00 | 0.00 | 50 | 1002.0 |
| 20260504185504 | 52 | 31 | 3.5 | 5.2 | 0.00 | 0.00 | 0.00 | 49 | 1002.1 |
| 20260504185004 | 52 | 67 | 3.5 | 6.1 | 0.00 | 0.00 | 0.00 | 49 | 1001.6 |
| 20260504184504 | 52 | 40 | 4.3 | 7.8 | 0.00 | 0.00 | 0.00 | 53 | 1001.6 |
| 20260504184004 | 51 | 30 | 4.3 | 7.0 | 0.00 | 0.00 | 0.00 | 57 | 1001.7 |
| 20260504183504 | 51 | 26 | 2.6 | 4.3 | 0.00 | 0.00 | 0.00 | 54 | 1001.9 |
| 20260504183004 | 51 | 325 | 3.5 | 8.7 | 0.00 | 0.00 | 0.00 | 48 | 1002.0 |
| 20260504182504 | 51 | 0 | 6.1 | 13.9 | 0.00 | 0.00 | 0.00 | 47 | 1002.2 |
| 20260504182003 | 52 | 352 | 10.4 | 24.3 | 0.00 | 0.00 | 0.00 | 45 | 1002.2 |
| 20260504181503 | 54 | 273 | 7.8 | 21.7 | 0.00 | 0.00 | 0.00 | 42 | 1002.0 |
| 20260504181004 | 55 | 286 | 7.8 | 13.9 | 0.00 | 0.00 | 0.00 | 39 | 1002.0 |
| 20260504180003 | 56 | 321 | 2.6 | 6.1 | 0.00 | 0.00 | 0.00 | 37 | 1001.7 |
| 20260504175504 | 55 | 290 | 0.0 | 5.2 | 0.00 | 0.00 | 0.00 | 36 | 1001.7 |
| 20260504174504 | 55 | 226 | 7.0 | 10.4 | 0.00 | 0.00 | 0.00 | 38 | 1001.9 |
| 20260504174003 | 54 | 277 | 0.9 | 2.6 | 0.00 | 0.00 | 0.00 | 38 | 1001.8 |
| 20260504173504 | 54 | 277 | 2.6 | 10.4 | 0.00 | 0.00 | 0.00 | 38 | 1002.0 |
| 20260504173004 | 54 | 259 | 7.0 | 12.2 | 0.00 | 0.00 | 0.00 | 41 | 1002.1 |
| 20260504172504 | 54 | 246 | 7.8 | 12.2 | 0.00 | 0.00 | 0.00 | 39 | 1002.0 |
| 20260504172003 | 54 | 233 | 8.7 | 13.9 | 0.00 | 0.00 | 0.00 | 38 | 1002.0 |
| 20260504171504 | 54 | 237 | 9.6 | 17.4 | 0.00 | 0.00 | 0.00 | 38 | 1002.0 |
| 20260504171003 | 55 | 238 | 6.1 | 13.0 | 0.00 | 0.00 | 0.00 | 37 | 1002.0 |
| 20260504170504 | 55 | 240 | 7.0 | 12.2 | 0.00 | 0.00 | 0.00 | 38 | 1002.1 |
| 20260504150504 | 53 | 234 | 5.2 | 11.3 | 0.00 | 0.00 | 0.00 | 34 | 1002.3 |
| 20260504140504 | 40 | 256 | 1.7 | 2.6 | 0.00 | 0.00 | 0.00 | 57 | 1002.4 |
| 20260504130504 | 30 | 256 | 4.3 | 4.3 | 0.00 | 0.00 | 0.00 | 62 | 1002.6 |
| 20260504110504 | 28 | 256 | 0.0 | 0.9 | 0.00 | 0.00 | 0.00 | 66 | 1002.5 |
| 20260504100504 | 29 | 256 | 0.0 | 0.0 | 0.00 | 0.00 | 0.00 | 62 | 1002.6 |